This is the latest recevied weather packets stored in our database for station/object N2WH. If no packets are shown the sender has not sent any weather packets the latest 10 day(s).
| Time | Temp. | Humidity | Pressure | Rain* | Wind** | Luminosity | Snow |
|---|---|---|---|---|---|---|---|
| 1777927336 | 22.78° C | 34% | 1010.3 hPa | 0 mm | - | 365 W/m² | - |
| 1777927035 | 23.33° C | 35% | 1010.2 hPa | 0 mm | - | 427 W/m² | - |
| 1777926733 | 23.33° C | 33% | 1009.8 hPa | 0 mm | - | 429 W/m² | - |
| 1777926432 | 23.33° C | 34% | 1010 hPa | 0 mm | - | 270 W/m² | - |
| 1777926130 | 23.33° C | 33% | 1010.3 hPa | 0 mm | - | 254 W/m² | - |
| 1777925827 | 22.78° C | 35% | 1010.1 hPa | 0 mm | - | 281 W/m² | - |
| 1777925524 | 23.33° C | 34% | 1010.1 hPa | 0 mm | - | 491 W/m² | - |
| 1777925221 | 23.33° C | 34% | 1010.5 hPa | 0 mm | - | 92 W/m² | - |
| 1777924917 | 23.89° C | 32% | 1010.4 hPa | 0 mm | - | 504 W/m² | - |
| 1777924614 | 23.89° C | 33% | 1010.3 hPa | 0 mm | - | 558 W/m² | - |
| 1777924310 | 23.33° C | 34% | 1010.5 hPa | 0 mm | - | 593 W/m² | - |
| 1777924007 | 22.22° C | 34% | 1010.5 hPa | 0 mm | - | 532 W/m² | - |
| 1777923702 | 22.78° C | 33% | 1010.4 hPa | 0 mm | - | 137 W/m² | - |
| 1777923399 | 22.78° C | 33% | 1010.5 hPa | 0 mm | - | 595 W/m² | - |
| 1777923097 | 22.78° C | 33% | 1010.5 hPa | 0 mm | - | 584 W/m² | - |
| 1777922795 | 22.78° C | 34% | 1010.8 hPa | 0 mm | - | 596 W/m² | - |
| 1777922493 | 22.78° C | 34% | 1010.8 hPa | 0 mm | - | 577 W/m² | - |
| 1777922191 | 23.33° C | 32% | 1010.7 hPa | 0 mm | - | 582 W/m² | - |
| 1777921887 | 22.78° C | 34% | 1010.8 hPa | 0 mm | - | 617 W/m² | - |
| 1777921583 | 22.78° C | 32% | 1010.8 hPa | 0 mm | - | 641 W/m² | - |
| 1777921280 | 23.33° C | 33% | 1010.8 hPa | 0 mm | - | 649 W/m² | - |
| 1777920976 | 23.33° C | 32% | 1010.7 hPa | 0 mm | - | 661 W/m² | - |
| 1777920673 | 22.78° C | 34% | 1010.9 hPa | 0 mm | - | 640 W/m² | - |
| 1777920369 | 22.78° C | 34% | 1010.9 hPa | 0 mm | - | 610 W/m² | - |
| 1777920064 | 23.33° C | 33% | 1011.1 hPa | 0 mm | - | 648 W/m² | - |
* Rain latest hour (hover to see other rain measurements)
** Current wind speed in m/s (hover to see current wind gust speed)